| time (UTC) | temp C | wind direction | speed KPH | gust KPH | rain 1hr cm | rain 24hr cm | rain mn cm | humidity % | barometer mb |
| 20260502221021 | 15 | 88 | 6.4 | 11.3 | 0.00 | 0.84 | 0.84 | 86 | 1019.5 |
| 20260502220024 | 15 | 89 | 4.8 | 9.7 | 0.00 | 0.84 | 0.84 | 86 | 1019.5 |
| 20260502215021 | 15 | 93 | 4.8 | 9.7 | 0.00 | 0.84 | 0.84 | 87 | 1019.6 |
| 20260502214020 | 15 | 95 | 6.4 | 12.9 | 0.00 | 0.84 | 0.84 | 87 | 1019.6 |
| 20260502213021 | 15 | 96 | 4.8 | 11.3 | 0.00 | 0.84 | 0.84 | 87 | 1019.5 |
| 20260502212027 | 15 | 98 | 6.4 | 12.9 | 0.00 | 0.84 | 0.84 | 87 | 1019.6 |
| 20260502211021 | 15 | 90 | 4.8 | 6.4 | 0.00 | 0.84 | 0.84 | 86 | 1019.7 |
| 20260502210024 | 15 | 94 | 4.8 | 11.3 | 0.00 | 0.84 | 0.84 | 86 | 1019.8 |
| 20260502205020 | 15 | 105 | 4.8 | 11.3 | 0.00 | 0.84 | 0.84 | 86 | 1019.8 |
| 20260502204020 | 15 | 108 | 4.8 | 12.9 | 0.00 | 0.84 | 0.84 | 86 | 1019.7 |
| 20260502203021 | 15 | 102 | 4.8 | 11.3 | 0.00 | 0.84 | 0.84 | 86 | 1019.7 |
| 20260502202023 | 15 | 106 | 4.8 | 11.3 | 0.00 | 0.84 | 0.84 | 85 | 1019.7 |
| 20260502201020 | 15 | 106 | 4.8 | 11.3 | 0.00 | 0.84 | 0.84 | 85 | 1019.6 |
| 20260502200021 | 15 | 108 | 4.8 | 11.3 | 0.00 | 0.84 | 0.84 | 84 | 1019.6 |
| 20260502194020 | 15 | 126 | 3.2 | 11.3 | 0.00 | 0.84 | 0.84 | 84 | 1019.5 |
| 20260502191020 | 15 | 92 | 4.8 | 9.7 | 0.00 | 0.84 | 0.84 | 83 | 1019.6 |
| 20260502190019 | 15 | 105 | 4.8 | 8.0 | 0.00 | 0.84 | 0.84 | 82 | 1019.5 |
| 20260502185021 | 15 | 117 | 3.2 | 11.3 | 0.00 | 0.84 | 0.84 | 82 | 1019.4 |
| 20260502184019 | 15 | 115 | 4.8 | 11.3 | 0.00 | 0.84 | 0.84 | 82 | 1019.3 |
| 20260502183019 | 15 | 117 | 6.4 | 14.5 | 0.00 | 0.84 | 0.84 | 81 | 1019.4 |
| 20260502181019 | 16 | 124 | 4.8 | 12.9 | 0.00 | 0.84 | 0.84 | 81 | 1019.8 |
| 20260502164021 | 16 | 140 | 4.8 | 12.9 | 0.00 | 0.84 | 0.84 | 77 | 1020.4 |
| 20260502163019 | 16 | 130 | 8.0 | 19.3 | 0.00 | 0.84 | 0.84 | 78 | 1020.1 |
| 20260502162019 | 16 | 146 | 12.9 | 20.9 | 0.00 | 0.84 | 0.84 | 78 | 1020.0 |
| 20260502152019 | 17 | 151 | 12.9 | 20.9 | 0.00 | 0.84 | 0.84 | 73 | 1020.6 |
| 20260502151020 | 17 | 135 | 11.3 | 20.9 | 0.00 | 0.84 | 0.84 | 73 | 1020.5 |
| 20260502123019 | 17 | 163 | 12.9 | 22.5 | 0.00 | 0.84 | 0.84 | 75 | 1022.4 |
| 20260502122019 | 17 | 155 | 12.9 | 22.5 | 0.00 | 0.84 | 0.84 | 74 | 1022.4 |
| 20260502121019 | 17 | 147 | 12.9 | 24.1 | 0.00 | 0.84 | 0.84 | 74 | 1022.4 |
| 20260502113018 | 17 | 139 | 11.3 | 24.1 | 0.00 | 0.84 | 0.84 | 75 | 1022.6 |
| 20260502112022 | 17 | 147 | 11.3 | 20.9 | 0.00 | 0.84 | 0.84 | 76 | 1022.7 |
| 20260502111022 | 17 | 158 | 14.5 | 22.5 | 0.00 | 0.84 | 0.84 | 75 | 1022.9 |
| 20260502110020 | 17 | 154 | 11.3 | 20.9 | 0.00 | 0.84 | 0.84 | 75 | 1023.0 |
| 20260502105019 | 17 | 156 | 11.3 | 19.3 | 0.00 | 0.84 | 0.84 | 74 | 1023.1 |
| 20260502104018 | 17 | 153 | 11.3 | 19.3 | 0.00 | 0.84 | 0.84 | 76 | 1023.2 |
| 20260502103019 | 17 | 140 | 9.7 | 17.7 | 0.00 | 0.84 | 0.84 | 74 | 1023.2 |
| 20260502102020 | 17 | 149 | 11.3 | 19.3 | 0.00 | 0.84 | 0.84 | 75 | 1023.2 |
| 20260502101019 | 17 | 130 | 6.4 | 14.5 | 0.00 | 0.84 | 0.84 | 77 | 1023.2 |
| 20260502091018 | 16 | 95 | 9.7 | 17.7 | 0.00 | 0.84 | 0.84 | 79 | 1023.3 |
| 20260502071020 | 14 | 56 | 9.7 | 17.7 | 0.03 | 0.81 | 0.81 | 88 | 1023.8 |
| 20260502065018 | 14 | 55 | 11.3 | 19.3 | 0.03 | 0.81 | 0.81 | 88 | 1023.6 |
| 20260502064020 | 14 | 55 | 11.3 | 19.3 | 0.05 | 0.81 | 0.81 | 88 | 1023.6 |
| 20260502062020 | 13 | 52 | 9.7 | 19.3 | 0.05 | 0.79 | 0.79 | 88 | 1023.6 |
| 20260502061019 | 13 | 50 | 12.9 | 20.9 | 0.05 | 0.79 | 0.79 | 88 | 1023.5 |
| 20260502060018 | 13 | 54 | 12.9 | 22.5 | 0.05 | 0.79 | 0.79 | 88 | 1023.5 |
| 20260502055020 | 13 | 59 | 12.9 | 20.9 | 0.05 | 0.79 | 0.79 | 88 | 1023.4 |
| 20260502054018 | 13 | 60 | 9.7 | 17.7 | 0.13 | 0.79 | 0.79 | 90 | 1023.4 |
| 20260502053019 | 13 | 58 | 9.7 | 20.9 | 0.15 | 0.76 | 0.76 | 90 | 1023.3 |
| 20260502052019 | 13 | 65 | 12.9 | 20.9 | 0.25 | 0.76 | 0.76 | 91 | 1023.1 |
| 20260502051019 | 13 | 57 | 11.3 | 20.9 | 0.38 | 0.76 | 0.76 | 91 | 1023.1 |
| 20260502050022 | 13 | 66 | 12.9 | 20.9 | 0.41 | 0.76 | 0.76 | 91 | 1023.1 |
| 20260502045018 | 13 | 81 | 11.3 | 20.9 | 0.51 | 0.76 | 0.76 | 91 | 1023.1 |
| 20260502044018 | 14 | 81 | 11.3 | 19.3 | 0.46 | 0.66 | 0.66 | 91 | 1023.0 |
| 20260502043019 | 14 | 117 | 8.0 | 17.7 | 0.46 | 0.61 | 0.61 | 91 | 1023.0 |
| 20260502042020 | 15 | 122 | 6.4 | 11.3 | 0.36 | 0.46 | 0.46 | 90 | 1022.9 |
| 20260502041019 | 15 | 100 | 8.0 | 17.7 | 0.33 | 0.38 | 0.38 | 90 | 1022.9 |
| 20260502040022 | 15 | 73 | 9.7 | 17.7 | 0.33 | 0.36 | 0.36 | 88 | 1022.7 |
| 20260502035021 | 15 | 93 | 6.4 | 14.5 | 0.25 | 0.25 | 0.25 | 88 | 1022.8 |
| 20260502034019 | 15 | 98 | 6.4 | 12.9 | 0.20 | 0.20 | 0.20 | 87 | 1022.8 |
| 20260502032020 | 15 | 123 | 4.8 | 11.3 | 0.10 | 0.10 | 0.10 | 86 | 1023.0 |
| 20260502031018 | 15 | 117 | 1.6 | 6.4 | 0.05 | 0.05 | 0.05 | 85 | 1023.0 |
| 20260502025020 | 16 | 95 | 6.4 | 11.3 | 0.00 | 0.00 | 0.00 | 83 | 1022.9 |
| 20260502022019 | 16 | 85 | 4.8 | 9.7 | 0.00 | 0.00 | 0.00 | 82 | 1022.9 |
| 20260502021019 | 16 | 77 | 6.4 | 11.3 | 0.00 | 0.00 | 0.00 | 82 | 1023.0 |
| 20260502020022 | 15 | 83 | 6.4 | 12.9 | 0.00 | 0.00 | 0.00 | 81 | 1023.1 |
| 20260502015018 | 15 | 78 | 6.4 | 12.9 | 0.00 | 0.00 | 0.00 | 82 | 1023.1 |
| 20260502014020 | 15 | 71 | 8.0 | 17.7 | 0.00 | 0.00 | 0.00 | 81 | 1023.2 |
| 20260502013019 | 15 | 73 | 8.0 | 16.1 | 0.00 | 0.00 | 0.00 | 81 | 1023.4 |
| 20260502012019 | 15 | 70 | 8.0 | 14.5 | 0.00 | 0.00 | 0.00 | 81 | 1023.4 |
| 20260502011026 | 15 | 83 | 6.4 | 12.9 | 0.00 | 0.00 | 0.00 | 81 | 1023.5 |
| 20260502005019 | 16 | 72 | 8.0 | 14.5 | 0.00 | 0.00 | 0.00 | 80 | 1023.7 |
| 20260502004022 | 15 | 81 | 8.0 | 12.9 | 0.00 | 0.00 | 0.00 | 80 | 1023.9 |
| 20260502002020 | 15 | 86 | 8.0 | 14.5 | 0.00 | 0.00 | 0.00 | 79 | 1023.9 |
| 20260502001019 | 15 | 84 | 8.0 | 16.1 | 0.00 | 0.00 | 0.00 | 79 | 1023.9 |
| 20260502000025 | 15 | 79 | 8.0 | 16.1 | 0.00 | 0.00 | 0.00 | 80 | 1024.2 |
| 20260501235019 | 15 | 74 | 8.0 | 16.1 | 0.00 | 0.00 | 0.00 | 80 | 1024.3 |
| 20260501234019 | 15 | 75 | 8.0 | 12.9 | 0.00 | 0.00 | 0.00 | 81 | 1024.4 |
| 20260501233021 | 15 | 72 | 8.0 | 16.1 | 0.00 | 0.00 | 0.00 | 81 | 1024.4 |
| 20260501232019 | 15 | 76 | 6.4 | 11.3 | 0.00 | 0.00 | 0.00 | 80 | 1024.6 |
| 20260501231018 | 16 | 84 | 6.4 | 14.5 | 0.00 | 0.00 | 0.00 | 79 | 1024.7 |
| 20260501230022 | 16 | 84 | 6.4 | 14.5 | 0.00 | 0.00 | 0.00 | 77 | 1024.6 |
| 20260501224018 | 16 | 84 | 8.0 | 16.1 | 0.00 | 0.00 | 0.00 | 77 | 1024.5 |
| 20260501223017 | 16 | 84 | 8.0 | 14.5 | 0.00 | 0.00 | 0.00 | 77 | 1024.4 |
| 20260501222019 | 16 | 79 | 6.4 | 9.7 | 0.00 | 0.00 | 0.00 | 78 | 1024.5 |